DW2485 Weather Reports


time (UTC)temp
F
wind
direction
speed
knots
gust
knots
rain 1hr
in
rain 24hr
in
rain mn
in
humidity
%
barometer
mb
20260906154004 75 119 6.1 8.7 0.00 0.00 0.00 80 1021.3
20260906153004 75 132 2.6 6.1 0.00 0.00 0.00 79 1021.4
20260906152505 75 96 4.3 7.8 0.00 0.00 0.00 80 1021.3
20260906151504 75 109 3.5 5.2 0.00 0.00 0.00 79 1021.4
20260906150504 75 95 3.5 5.2 0.00 0.00 0.00 79 1021.4
20260906145504 75 103 6.1 7.8 0.00 0.00 0.00 79 1021.0
20260906145004 75 107 6.1 10.4 0.00 0.00 0.00 79 1021.0
20260906143504 75 89 6.1 8.7 0.00 0.00 0.00 81 1020.8
20260906143005 74 97 4.3 7.8 0.00 0.00 0.00 81 1020.8
20260906142505 74 101 5.2 8.7 0.00 0.00 0.00 80 1020.7
20260906141505 73 83 7.0 10.4 0.00 0.00 0.00 82 1020.6
20260906140004 72 90 6.1 8.7 0.00 0.00 0.00 86 1020.9
20260906135504 71 62 5.2 10.4 0.00 0.00 0.00 86 1020.8
20260906133004 70 59 4.3 7.8 0.00 0.00 0.00 89 1020.8
20260906131504 70 68 5.2 10.4 0.00 0.00 0.00 89 1020.8
20260906131005 69 77 6.1 10.4 0.00 0.00 0.00 89 1020.6
20260906130504 69 71 5.2 8.7 0.00 0.00 0.00 90 1020.6
20260906122504 67 80 3.5 6.1 0.00 0.00 0.00 92 1020.5
20260906122004 67 71 3.5 6.1 0.00 0.00 0.00 92 1020.4
20260906121004 67 68 0.9 2.6 0.00 0.00 0.00 93 1020.3
20260906120004 67 71 0.9 2.6 0.00 0.00 0.00 93 1020.3
20260906115504 67 65 2.6 2.6 0.00 0.00 0.00 93 1020.2
20260906113504 67 62 1.7 2.6 0.00 0.00 0.00 92 1020.0
20260906112005 67 74 1.7 2.6 0.00 0.00 0.00 92 1019.9
20260906111004 67 36 2.6 2.6 0.00 0.00 0.00 91 1019.9
20260906105504 68 73 3.5 6.1 0.00 0.00 0.00 91 1019.7
20260906102005 68 89 5.2 11.3 0.00 0.00 0.00 91 1019.3
20260906095004 67 67 6.1 10.4 0.00 0.00 0.00 92 1018.8
20260906094004 67 66 4.3 7.8 0.00 0.00 0.00 92 1018.9
20260906093504 67 65 2.6 7.0 0.00 0.00 0.00 92 1018.9
20260906092004 68 75 2.6 6.1 0.00 0.00 0.00 92 1018.9
20260906091504 68 69 3.5 7.0 0.00 0.00 0.00 92 1018.9
20260906091004 68 73 2.6 7.8 0.00 0.00 0.00 92 1018.8
20260906085504 68 91 5.2 7.8 0.00 0.00 0.00 91 1018.5
20260906084004 69 87 4.3 7.8 0.00 0.00 0.00 92 1018.6
20260906083503 69 91 4.3 6.1 0.00 0.00 0.00 92 1018.7
20260906083004 69 90 4.3 5.2 0.00 0.00 0.00 92 1018.8
20260906082005 69 75 3.5 6.1 0.00 0.00 0.00 92 1018.9
20260906080504 70 72 2.6 5.2 0.00 0.00 0.00 91 1019.0
20260906080004 70 84 3.5 6.1 0.00 0.00 0.00 90 1019.0
20260906075504 70 90 3.5 7.0 0.00 0.00 0.00 90 1018.9
20260906075004 70 84 4.3 7.8 0.00 0.00 0.00 90 1018.9
20260906074003 71 93 2.6 6.1 0.00 0.00 0.00 90 1018.9
20260906073504 71 84 5.2 7.8 0.00 0.00 0.00 90 1018.9
20260906071004 71 81 5.2 7.0 0.00 0.00 0.00 90 1019.1
20260906065004 71 61 4.3 7.0 0.00 0.00 0.00 90 1019.1
20260906064504 71 64 4.3 7.8 0.00 0.00 0.00 90 1019.0
20260906064004 72 89 4.3 7.0 0.00 0.00 0.00 90 1018.9
20260906063004 72 79 4.3 7.0 0.00 0.00 0.00 89 1019.0
20260906062503 72 88 2.6 7.0 0.00 0.00 0.00 89 1019.1
20260906061504 72 73 3.5 7.8 0.00 0.00 0.00 89 1019.1
20260906061003 72 62 4.3 7.8 0.00 0.00 0.00 89 1019.1
20260906055504 72 44 3.5 6.1 0.00 0.00 0.00 88 1018.9
20260906054504 72 69 4.3 6.1 0.00 0.00 0.00 88 1018.7
20260906053004 73 29 5.2 10.4 0.00 0.00 0.00 88 1018.8
20260906051503 73 67 4.3 7.8 0.00 0.00 0.00 88 1018.4
20260906050004 72 41 5.2 7.8 0.00 0.00 0.00 89 1018.9
20260906045004 72 43 3.5 7.8 0.00 0.00 0.00 89 1018.7
20260906044503 72 33 4.3 5.2 0.00 0.00 0.00 89 1018.8
20260906042506 72 12 4.3 4.3 0.00 0.00 0.00 90 1018.9
20260906040506 72 19 2.6 4.3 0.00 0.00 0.00 90 1018.4
20260906040005 72 23 2.6 4.3 0.00 0.00 0.00 90 1018.4
20260906035506 72 12 3.5 4.3 0.00 0.00 0.00 90 1018.5
20260906035006 72 5 2.6 2.6 0.00 0.00 0.00 90 1018.5
20260906033506 73 355 0.9 2.6 0.00 0.00 0.00 90 1018.4
20260906032505 73 9 2.6 2.6 0.00 0.00 0.00 90 1018.4
20260906031005 73 15 2.6 2.6 0.00 0.00 0.00 90 1018.2
20260906030005 73 54 1.7 1.7 0.00 0.00 0.00 90 1018.1
20260906025505 73 54 0.9 0.9 0.00 0.00 0.00 89 1018.1
20260906025005 73 54 0.0 0.9 0.00 0.00 0.00 89 1018.0
20260906024006 73 54 0.0 0.9 0.00 0.00 0.00 89 1017.8
20260906021505 73 34 0.9 1.7 0.00 0.00 0.00 88 1017.4
20260906020506 73 35 1.7 2.6 0.00 0.00 0.00 88 1017.1
20260906014505 74 82 0.9 1.7 0.00 0.00 0.00 86 1016.8
20260906013505 75 82 0.9 1.7 0.00 0.00 0.00 85 1016.6
20260906012505 75 73 1.7 2.6 0.00 0.00 0.00 85 1016.6
20260906012006 75 57 1.7 2.6 0.00 0.00 0.00 84 1016.6
20260906011505 75 63 0.9 2.6 0.00 0.00 0.00 84 1016.6
20260906011006 75 74 1.7 2.6 0.00 0.00 0.00 84 1016.7
20260906010505 76 60 2.6 5.2 0.00 0.00 0.00 83 1016.5
20260906010006 76 56 2.6 5.2 0.00 0.00 0.00 83 1016.6
20260906005506 76 56 4.3 6.1 0.00 0.00 0.00 83 1016.6
20260906005005 76 61 4.3 8.7 0.00 0.00 0.00 82 1016.6
20260906003005 77 54 5.2 8.7 0.00 0.00 0.00 81 1016.5
20260906002005 78 59 4.3 7.0 0.00 0.00 0.00 80 1016.5
20260906001505 78 69 5.2 8.7 0.00 0.00 0.00 80 1016.4
20260906000505 79 65 4.3 10.4 0.00 0.00 0.00 78 1016.5
20260906000005 79 74 6.1 10.4 0.00 0.00 0.00 78 1016.4
20260905235506 80 67 6.1 8.7 0.00 0.00 0.00 78 1016.3
20260905234505 81 82 3.5 7.0 0.00 0.00 0.00 77 1016.3
20260905234006 81 59 5.2 7.8 0.00 0.00 0.00 76 1016.4
20260905233505 82 67 5.2 8.7 0.00 0.00 0.00 75 1016.3
20260905233005 82 77 4.3 7.8 0.00 0.00 0.00 75 1016.3
20260905232005 83 80 5.2 10.4 0.00 0.00 0.00 73 1016.3
20260905231505 83 59 4.3 7.8 0.00 0.00 0.00 73 1016.3
20260905231005 83 66 3.5 10.4 0.00 0.00 0.00 72 1016.1
20260905230505 84 58 4.3 8.7 0.00 0.00 0.00 71 1016.1
20260905225005 84 53 6.1 10.4 0.00 0.00 0.00 70 1016.2
20260905224505 84 47 3.5 7.8 0.00 0.00 0.00 71 1016.2
20260905223505 84 33 6.1 8.7 0.00 0.00 0.00 71 1015.9
20260905223005 84 59 7.8 11.3 0.00 0.00 0.00 71 1016.1
20260905215505 85 41 10.4 13.9 0.00 0.00 0.00 70 1016.2
20260905214005 86 40 7.8 11.3 0.00 0.00 0.00 70 1016.1
20260905213005 87 44 7.0 10.4 0.00 0.00 0.00 69 1016.1
20260905211507 87 43 7.8 11.3 0.00 0.00 0.00 70 1016.1
20260905210506 88 29 5.2 13.0 0.00 0.00 0.00 70 1016.0
20260905204005 89 33 10.4 13.0 0.00 0.00 0.00 68 1015.8
20260905203505 89 46 7.8 11.3 0.00 0.00 0.00 68 1015.7
20260905202505 90 51 6.1 10.4 0.00 0.00 0.00 68 1015.7
20260905202005 90 63 6.1 10.4 0.00 0.00 0.00 66 1015.8
20260905201005 90 56 7.0 11.3 0.00 0.00 0.00 68 1015.7
20260905195005 90 25 5.2 8.7 0.00 0.00 0.00 69 1016.3
20260905194505 91 12 8.7 11.3 0.00 0.00 0.00 69 1016.3
20260905194005 89 17 5.2 10.4 0.00 0.00 0.00 70 1016.3
20260905193506 90 28 4.3 10.4 0.00 0.00 0.00 70 1016.5
20260905193005 89 355 4.3 7.0 0.00 0.00 0.00 70 1016.4
20260905191505 91 48 5.2 7.8 0.00 0.00 0.00 68 1016.3
20260905191005 89 25 5.2 8.7 0.00 0.00 0.00 68 1016.4
20260905190505 90 14 4.3 7.8 0.00 0.00 0.00 67 1016.4
20260905190005 90 23 2.6 7.0 0.00 0.00 0.00 67 1016.4
20260905185005 89 36 4.3 7.8 0.00 0.00 0.00 70 1016.4
20260905184505 90 40 5.2 8.7 0.00 0.00 0.00 69 1016.4
20260905183505 90 354 3.5 5.2 0.00 0.00 0.00 68 1016.4
20260905183005 90 51 2.6 6.1 0.00 0.00 0.00 69 1016.5
20260905182005 91 23 3.5 6.1 0.00 0.00 0.00 68 1016.5
20260905181505 90 24 4.3 7.8 0.00 0.00 0.00 69 1016.5
20260905175505 90 35 4.3 7.8 0.00 0.00 0.00 69 1016.4
20260905175005 90 31 4.3 7.8 0.00 0.00 0.00 69 1016.3
20260905174504 90 53 2.6 7.8 0.00 0.00 0.00 67 1016.5
20260905172005 90 40 5.2 8.7 0.00 0.00 0.00 68 1016.4
20260905164504 90 26 6.1 8.7 0.00 0.00 0.00 70 1016.9
20260905163005 90 7 4.3 8.7 0.00 0.00 0.00 69 1016.9
20260905162504 91 52 5.2 8.7 0.00 0.00 0.00 68 1016.7
20260905162005 91 56 7.0 10.4 0.00 0.00 0.00 67 1016.7
20260905161004 91 57 6.1 10.4 0.00 0.00 0.00 68 1016.8
20260905160005 89 32 7.8 10.4 0.00 0.00 0.00 69 1016.6
20260905155005 89 24 4.3 7.8 0.00 0.00 0.00 70 1016.6